Regional Weather Roundup
Issued by NWS

Home | Current Version | Previous Version | Graphics & Text | Print | Product List | Glossary On
Versions: 1 2 3 4 5 6 7 8 9 10 11 12 13 14 15 16 17 18 19 20 21 22 23 24 25 26 27 28 29 30 31 32 33 34 35 36 37 38 39 40 41 42 43 44 45 46 47 48 49 50
000
ASUS43 KFSD 232202
RWRSD

WEATHER ROUNDUP FOR SOUTH DAKOTA
NATIONAL WEATHER SERVICE SIOUX FALLS SD
500 PM CDT SUN JUL 23 2017

NOTE: "FAIR" INDICATES FEW OR NO CLOUDS BELOW 12,000 FEET WITH NO
SIGNIFICANT WEATHER AND/OR OBSTRUCTIONS TO VISIBILITY.


SDZ001>005-009-010-012>017-232300-
NORTHWEST AND NORTH CENTRAL SOUTH DAKOTA

CITY           SKY/WX    TMP DP  RH WIND       PRES   REMARKS
BUFFALO          N/A     91  44  19 SE9       29.93F
FAITH            N/A     89  46  22 VRB6G16   29.99F
MOBRIDGE       SUNNY     83  58  42 VRB7      29.98F
$$

SDZ012>016-024>037-041>051-057-063-072>074-232300-
SOUTHWEST AND SOUTH CENTRAL SOUTH DAKOTA

CITY           SKY/WX    TMP DP  RH WIND       PRES   REMARKS
RAPID CTY ARPT SUNNY     92  46  20 SE13G20   30.01F
PIERRE         SUNNY     88  46  23 VRB6      29.97F
CUSTER         SUNNY     83  43  24 SE9G17    30.17F
ELLSWORTH AFB  SUNNY     92  46  20 SE10G21   30.01F
PHILIP         SUNNY     94  47  20 SE13      29.97F
PINE RIDGE     SUNNY     92  55  28 SE7       30.01F
SPEARFISH      FAIR      91  46  21 E18G26    30.03F
WINNER         FAIR      92  49  22 VRB7G18   30.00F
$$

SDZ004>011-016>023-039-040-232300-
NORTHEAST SOUTH DAKOTA

CITY           SKY/WX    TMP DP  RH WIND       PRES   REMARKS
ABERDEEN       SUNNY     79  60  52 N10       30.00F
WATERTOWN      PTSUNNY   76  60  57 NE9G18    30.01S
BROOKINGS      PTSUNNY   75  61  61 NE8       30.01S
SISSETON         N/A     77  61  57 N9        30.00F
$$

SDZ017-020-022-023-036>040-048>070-232300-
SOUTHEAST SOUTH DAKOTA

CITY           SKY/WX    TMP DP  RH WIND       PRES   REMARKS
SIOUX FALLS    FAIR      81  61  50 N12       29.99S
HURON          SUNNY     80  59  48 N12G20    30.00S
CHAMBERLAIN    SUNNY     89  53  29 NW10      29.99F
MITCHELL       SUNNY     82  58  43 N10       30.00F
YANKTON        FAIR      83  58  42 N9        29.99S
$$

ABBREVIATIONS USED IN REMARKS
   TC - TEMPERATURE IN CELSIUS
  WCI - WIND CHILL INDEX
   HX - HEAT INDEX
  VSB - VISIBILITY




USA.gov is the U.S. government's official web portal to all federal, state and local government web resources and services.